Погода в Дубках

Россия / Липецкая область     53°32′45″N   39°00′59″E
темп.,
°C
ветер,
м/с
пор.,
м/с
влажн.,
%
обл.,
%
осадки,
мм/ч
давл.,
гПа
погр.,
м
13 апреля, вт
вт1300:00+11юв4147596 0.0 1026241
03:00+9юв41276100 0.0 1026178
06:00+8юв4117868 0.0 1027175
09:00+13ююв5105451 0.0 1026320
12:00+18юв693844 0.0 1025839
15:00+21ююв7102812 0.0 10241961
18:00+18юв612344 0.0 1023379
21:00+14юв614495 0.0 1023306
14 апреля, ср
ср1400:00+11юв5135784 0.0 1023273
03:00+9юв41066100 0.0 1023166
06:00+8юв3869100 0.0 1022116
09:00+12юв4855100 0.0 1021283
12:00+17юв5738100 0.0 1020746
15:00+19юв68284 0.0 10181866
18:00+17юв483382 0.0 1017215
21:00+13юв374833 0.0 1018113
15 апреля, чт
чт1500:00+11юв345987 0.0 101758
03:00+10юв3462100 0.0 101750
06:00+9вюв3364100 0.0 101630
09:00+12юз0159100 0.0 1016130
12:00+16вюв345085 0.0 1016916
15:00+18всв4441100 0.0 10141653
18:00+13зюз356974 0.3 1015160
21:00+13с226595 0.3 101517
16 апреля, пт
пт1600:00+11св2369100 0.0 101542
03:00+11всв3372100 0.0 101437
06:00+11в227266 0.0 101518
09:00+12юв2567100 0.1 1015231
12:00+17вюв3451100 0.1 1016928
15:00+17юв5945100 0.9 10162208
18:00+16вюв485698 0.3 1016523
21:00+12ю71278100 1.3 1017379
17 апреля, сб
сб1700:00+11всв118099 0.1 101720
03:00+10св338890 0.3 101851
06:00+9св51093100 0.0 1018249
09:00+12всв71071100 0.1 1018487
12:00+17в8115029 0.0 10191234
15:00+19в91142100 0.0 10182701
18:00+15вюв7115978 0.8 10201058
21:00+12всв713675 2.6 1022584